Frederick, MD

5:30 AM EST on November 12, 2019 (GMT -0500)
Frederick Municipal

Weather History for KFDK - October, 2019

Change the Weather History Date:

Saturday, October 19, 2019

  Actual Average (KHGR) Record (KHGR)
Temperature  
Mean Temperature 50 °F -  
Max Temperature 64 °F 60 °F 85 °F (2016)
Min Temperature 35 °F 42 °F 30 °F (2015)
Degree Days  
Heating Degree Days 16    
Moisture  
Dew Point 40 °F    
Average Humidity 86    
Maximum Humidity 100    
Minimum Humidity 40    
Precipitation  
Precipitation 0.00 in - - ()
Sea Level Pressure  
Sea Level Pressure 30.07 in    
Wind  
Wind Speed 1 mph (SSW)    
Max Wind Speed 10 mph    
Max Gust Speed -    
Visibility 9 miles    
Events      
Averages and records for this station are not official NWS values.
T = Trace of Precipitation, MM = Missing Value Source: NWS Daily Summary

Daily Weather History Graph

Daily Weather History Graph

Search for Another Location

Airport or City:

Astronomy

Oct. 19, 2019 Rise Set
Actual Time 7:23 AM EDT 6:25 PM EDT
Civil Twilight 6:56 AM EDT 6:52 PM EDT
Nautical Twilight 6:24 AM EDT 7:23 PM EDT
Astronomical Twilight 5:53 AM EDT 7:54 PM EDT
Moon 10:33 PM EDT (10/19) 12:52 PM EDT (10/19)
Length of Visible Light 11h 56m
Length of Day
11h 01m
Waning Gibbous, 70% of the Moon is Illuminated
Oct 19
Waning Gibbous
Oct 21
Last Quarter
Oct 27
New
Nov 4
First Quarter
Nov 12
Full

Hourly Weather History & Observations

Time (EDT) Temp. Windchill Dew Point Humidity Pressure Visibility Wind Dir Wind Speed Gust Speed Precip Events Conditions
12:05 AM 41.0 °F - 39.2 °F 93% 30.07 in 10.0 mi Calm Calm - N/A   Clear
12:25 AM 41.0 °F - 39.2 °F 93% 30.06 in 10.0 mi Calm Calm - N/A   Clear
12:45 AM 41.0 °F - 39.2 °F 93% 30.06 in 10.0 mi Calm Calm - N/A   Clear
1:05 AM 37.4 °F - 37.4 °F 100% 30.06 in 10.0 mi Calm Calm - N/A   Clear
1:25 AM 37.4 °F - 37.4 °F 100% 30.06 in 10.0 mi Calm Calm - N/A   Clear
1:45 AM 37.4 °F - 37.4 °F 100% 30.05 in 7.0 mi Calm Calm - N/A   Clear
2:05 AM 37.4 °F - 35.6 °F 93% 30.06 in 7.0 mi Calm Calm - N/A   Clear
2:25 AM 37.4 °F 34.9 °F 37.4 °F 100% 30.07 in 7.0 mi SSE 3.5 mph - N/A   Clear
2:45 AM 37.4 °F - 37.4 °F 100% 30.06 in 10.0 mi Calm Calm - N/A   Clear
3:05 AM 37.4 °F 34.9 °F 37.4 °F 100% 30.07 in 10.0 mi South 3.5 mph - N/A   Clear
3:25 AM 37.4 °F - 37.4 °F 100% 30.07 in 2.5 mi Calm Calm - N/A   Clear
4:05 AM 37.4 °F - 37.4 °F 100% 30.09 in 10.0 mi Calm Calm - N/A   Clear
4:25 AM 37.4 °F - 35.6 °F 93% 30.09 in 7.0 mi Calm Calm - N/A   Clear
4:45 AM 37.4 °F - 37.4 °F 100% 30.10 in 10.0 mi Calm Calm - N/A   Clear
5:05 AM 37.4 °F - 35.6 °F 93% 30.10 in 10.0 mi Calm Calm - N/A   Clear
5:25 AM 37.4 °F - 35.6 °F 93% 30.11 in 10.0 mi Calm Calm - N/A   Clear
5:45 AM 35.6 °F - 35.6 °F 100% 30.11 in 7.0 mi Calm Calm - N/A   Clear
6:05 AM 35.6 °F - 35.6 °F 100% 30.11 in 5.0 mi Calm Calm - N/A   Clear
6:25 AM 35.6 °F - 35.6 °F 100% 30.11 in 2.0 mi Calm Calm - N/A   Scattered Clouds
6:45 AM 35.6 °F - 35.6 °F 100% 30.11 in 7.0 mi Calm Calm - N/A   Scattered Clouds
7:00 AM 35.6 °F - 35.6 °F 100% 30.11 in 2.5 mi Calm Calm - N/A   Scattered Clouds
7:01 AM 35.6 °F - 35.6 °F 100% 30.12 in 10.0 mi Calm Calm - N/A   Clear
7:47 AM 35.6 °F - 35.6 °F 100% 30.13 in 10.0 mi Calm Calm - N/A   Scattered Clouds
8:47 AM 39.2 °F - 39.2 °F 100% 30.14 in 10.0 mi Calm Calm - N/A   Scattered Clouds
9:47 AM 46.4 °F - 42.8 °F 87% 30.12 in 10.0 mi Calm Calm - N/A   Clear
10:47 AM 53.6 °F - 42.8 °F 67% 30.12 in 10.0 mi Calm Calm - N/A   Clear
11:47 AM 57.2 °F - 42.8 °F 59% 30.11 in 10.0 mi Calm Calm - N/A   Clear
12:47 PM 60.8 °F - 41.0 °F 48% 30.09 in 10.0 mi WSW 6.9 mph - N/A   Clear
1:47 PM 62.6 °F - 39.2 °F 42% 30.08 in 10.0 mi WSW 10.4 mph - N/A   Clear
3:47 PM 62.6 °F - 39.2 °F 42% 30.03 in 10.0 mi SSW 9.2 mph - N/A   Clear
4:47 PM 64.4 °F - 39.2 °F 40% 30.02 in 10.0 mi SSW 5.8 mph - N/A   Clear
5:55 PM 60.8 °F - 42.8 °F 52% 30.01 in 10.0 mi Calm Calm - N/A   Clear
6:47 PM 59.0 °F - 44.6 °F 59% 30.02 in 10.0 mi Calm Calm - N/A   Clear
7:47 PM 55.4 °F - 44.6 °F 67% 30.02 in 10.0 mi Calm Calm - N/A   Clear
8:47 PM 53.6 °F - 46.4 °F 77% 30.01 in 10.0 mi Calm Calm - N/A   Clear
9:25 PM 51.8 °F - 44.6 °F 76% 30.01 in 10.0 mi Calm Calm - N/A   Clear
9:45 PM 50.0 °F - 44.6 °F 82% 30.01 in 10.0 mi NNW 3.5 mph - N/A   Clear
10:05 PM 50.0 °F - 46.4 °F 87% 30.01 in 10.0 mi Calm Calm - N/A   Clear
10:25 PM 50.0 °F - 46.4 °F 87% 30.01 in 10.0 mi Calm Calm - N/A   Clear
10:45 PM 50.0 °F - 46.4 °F 87% 30.01 in 10.0 mi Calm Calm - N/A   Clear
11:05 PM 50.0 °F - 46.4 °F 87% 30.01 in 10.0 mi Calm Calm - N/A   Clear
11:25 PM 50.0 °F - 46.4 °F 87% 30.01 in 10.0 mi Calm Calm - N/A   Clear
11:45 PM 48.2 °F - 46.4 °F 93% 30.01 in 10.0 mi Calm Calm - N/A   Clear